544  
ASUS44 KOHX 131610  
RWROHX  
MIDDLE TENNESSEE HOURLY WEATHER ROUNDUP  
NATIONAL WEATHER SERVICE NASHVILLE TN  
1100 AM CDT SAT APR 13 2024  
 
NOTE: "FAIR" INDICATES FEW OR NO CLOUDS BELOW 12,000 FEET WITH  
NO SIGNIFICANT WEATHER AND/OR S TO VISIBILITY
.  
 
* THESE REPORTS ARE NOT UNDER NWS QUALITY CONTROL AND MAY NOT  
REPORT WEATHER SUCH AS PRECIPITATION AND FOG.
 
 
 
TNZ005>011-023>034-057-059-062>066-078-080-131700   
..NORTHERN MIDDLE TENNESSEE
 
 
 
CITY SKY/WX TMP DP RH WIND PRES REMARKS
 
CLARKSVILLE SUNNY 68 36 30 SW10 30.25S  
CROSSVILLE SUNNY 61 30 31 NW10G22 30.26S  
DICKSON SUNNY 68 32 26 NW5 30.26S  
LEBANON N/A 66 36 32 SW9 30.24S  
LIVINGSTON SUNNY 63 34 34 W8 30.24S  
NASHVILLE SUNNY 70 34 26 VRB6 30.27S  
PORTLAND SUNNY 66 34 30 VRB6G12 30.25R  
ROCKWOOD SUNNY 63 27 25 N8G17 30.24S  
SMYRNA SUNNY 68 36 30 S7 30.28S  
SPARTA SUNNY 64 32 29 VRB7 30.26S  
SPRINGFIELD SUNNY 66 39 37 VRB7 30.25S  

 
TNZ056-058-060-061-075>077-079-093>097-131700   
..SOUTHERN MIDDLE TENNESSEE
 
 
 
CITY SKY/WX TMP DP RH WIND PRES REMARKS
 
COLUMBIA SUNNY 66 34 30 CALM 30.26S  
LAWRENCEBURG SUNNY 68 32 26 NW5 30.28S  
LEWISBURG SUNNY 68 34 28 VRB5 30.27S  
MCMINNVILLE SUNNY 66 36 32 VRB7G14 30.26S  
MURFREESBORO SUNNY 68 34 28 CALM 30.25F  
PULASKI SUNNY 68 36 30 NE5 30.28S  
SHELBYVILLE SUNNY 66 37 34 VRB5 30.27S  
TULLAHOMA SUNNY 66 34 30 VRB7 30.27S  
WINCHESTER SUNNY 64 36 34 CALM 30.28S  

 
 
   
..KEY TO REMARKS
 
 
VSB - VISIBILITY IN MILES  
WCI - WIND CHILL INDEX  
HX - HEAT INDEX  
 
 
 
CLICK HERE TO GO TO PREVIOUS BULLETINS.

The Nexlab TN Page Main Text Page